Retour au catalogue

KUIPER-00156

ActifCommunicationsLEO
NORAD 65775·PAYLOAD·🇺🇸 United States

Lancé Sep 25, 2025 depuis Cape Canaveral Space Force Station

Loading…

Prochains Passages (prochaines 24 heures)

TLE

FraisSource: CelesTrak SupGP

Époque: Sep 14, 2026, 22:47 UTC

1 65775C 25217P   26257.94975694  .00003530  00000+0  46217-3 0  2572
2 65775  51.9013 268.7666 0000560  68.9811 265.7146 14.79917446    10

Suivez KUIPER-00156 en temps réel avec AllMySat

Download on the App Store